Wind_Speed
23 23 24 24 24 24 24 24 23 23 22 22 23 24 23 23 22 21 22 22 21 19 18 17 14 13 12 12 16 12 4 3 4 5 6 6 5 4 3 3 4 3 2 3 3 3 3 5 5 4 5 4 1 1 1 1 0 2 4 5 6 6 4 3 5 3 2 2 3 7 9 9 6 5 5 3 5 6 5 6 7 7 5 3 1 2 5 3
23 23 24 24 25 25 25 25 24 24 23 23 23 23 24 24 24 24 23 23 22 20 18 16 13 12 11 12 14 10 4 5 6 7 6 5 4 2 2 2 2 2 2 3 4 2 3 4 4 2 3 2 0 1 1 1 1 4 4 5 7 5 1 1 1 2 4 4 2 6 7 8 7 4 4 5 7 7 8 9 6 9 9 5 3 2 3 3
23 23 24 24 24 25 25 25 25 25 25 25 25 24 25 24 25 25 24 23 21 19 17 14 13 11 11 12 12 8 3 6 5 5 4 5 3 1 2 2 1 3 3 3 4 3 3 4 3 2 3 2 1 1 3 0 1 4 3 7 5 1 1 4 5 5 7 7 4 4 3 7 7 2 3 5 8 8 10 10 6 9 8 4 3 4 4 6
23 24 24 24 25 25 25 25 26 26 26 26 26 26 26 25 26 26 24 23 21 18 15 13 12 11 11 13 11 5 2 4 2 3 3 5 3 1 1 1 2 3 3 4 5 5 4 4 3 2 2 3 2 2 3 1 1 3 3 6 0 3 2 3 7 7 9 8 6 5 2 5 4 1 4 5 7 9 9 9 7 7 6 4 3 5 6 7
24 24 24 25 25 25 25 25 25 25 25 26 26 26 26 26 27 26 25 23 20 17 12 11 10 9 10 13 10 3 3 3 2 3 3 4 2 1 1 1 2 3 3 5 5 5 4 3 2 2 1 3 3 3 2 2 2 2 4 2 3 3 3 3 7 7 8 7 6 5 3 4 4 3 7 8 10 7 2 1 2 4 4 4 2 3 6 7
24 24 25 25 25 26 26 26 26 25 25 25 25 25 25 27 28 27 26 21 17 13 10 9 8 6 9 12 8 1 3 1 3 5 3 2 1 2 2 1 2 2 3 5 5 4 4 2 2 3 2 2 3 3 2 2 1 3 3 1 3 2 3 5 7 6 6 6 6 5 5 6 6 6 7 10 13 8 3 5 4 1 1 1 2 2 6 8
25 25 26 26 26 26 26 27 27 27 27 26 25 25 25 28 28 27 25 17 11 8 9 9 5 4 8 11 6 0 1 1 4 4 2 1 2 3 1 1 2 2 2 4 4 4 5 4 4 4 3 3 2 3 3 2 0 4 2 1 2 3 4 5 6 7 6 6 7 5 6 7 8 7 6 9 12 10 7 4 2 2 3 1 2 4 6 8
24 25 26 26 27 27 27 28 28 29 29 28 27 26 27 28 28 27 21 12 7 6 8 8 3 2 7 9 4 1 1 2 3 2 1 2 2 2 1 1 2 3 3 3 3 4 4 4 5 4 3 3 3 4 3 2 2 4 3 2 3 3 4 4 6 8 8 8 5 5 9 10 10 7 8 12 13 10 7 7 5 3 2 2 3 5 6 6
24 25 26 26 27 27 28 28 29 30 30 30 29 29 30 29 30 25 14 8 6 5 6 7 4 3 7 7 1 1 2 4 4 3 2 2 2 0 2 3 3 4 5 4 1 2 2 2 4 3 3 5 4 4 3 3 2 2 2 3 5 6 7 6 7 6 7 6 3 8 12 12 8 5 10 13 13 12 8 8 8 5 5 5 5 6 5 5
24 25 26 26 27 28 28 29 30 31 31 30 30 31 30 30 30 21 10 8 6 4 5 8 6 5 7 3 1 1 3 5 3 3 3 3 2 2 4 4 4 5 5 4 2 0 1 2 3 2 3 5 4 4 2 2 1 1 2 5 7 8 7 5 7 7 6 6 6 11 15 14 6 4 9 5 4 8 9 10 9 8 8 6 6 6 6 6
24 25 26 26 27 28 29 30 31 32 32 30 30 31 29 30 28 16 8 8 6 3 5 7 7 6 4 1 1 1 5 5 4 5 4 3 3 4 5 4 4 6 5 5 3 3 2 3 4 1 1 4 5 4 2 1 1 1 2 6 7 6 7 6 9 8 5 5 8 10 14 15 7 7 11 4 1 5 6 9 10 10 11 8 8 8 7 7
24 25 26 27 28 28 29 30 31 33 32 30 31 30 29 31 24 11 6 5 3 4 7 9 8 5 1 1 2 3 5 4 4 5 4 4 5 7 6 4 4 4 5 5 4 3 5 5 3 1 1 4 5 4 4 2 0 1 2 6 6 5 6 6 6 5 5 4 3 4 11 11 8 9 11 8 8 10 10 11 11 12 12 11 10 9 9 9
24 25 26 27 28 29 30 31 32 34 32 30 31 29 31 29 18 8 4 3 2 3 8 10 7 4 2 1 3 4 5 4 4 5 6 7 8 9 7 5 5 4 5 7 6 5 6 4 3 4 2 2 3 3 3 2 1 2 3 3 5 6 4 1 2 1 5 3 3 4 7 3 6 5 5 5 6 8 12 14 13 13 12 11 10 8 9 10
24 25 26 27 28 29 31 32 34 34 32 31 30 29 31 25 13 6 5 5 5 5 12 10 4 3 1 2 2 4 5 4 5 4 5 6 7 8 8 7 7 7 7 9 8 7 7 6 5 5 2 1 3 3 2 1 1 2 3 2 2 4 1 3 1 2 4 1 2 6 7 3 2 2 2 3 3 3 9 12 12 12 11 11 10 10 10 9
24 25 26 27 28 30 31 33 35 34 33 32 29 30 30 19 9 6 6 7 7 10 14 7 2 1 1 2 1 5 6 5 5 4 3 4 5 6 7 7 8 8 8 8 7 6 6 6 4 3 2 1 2 3 2 1 1 1 4 3 1 2 1 1 1 2 2 1 3 6 6 4 3 5 5 4 1 1 7 10 9 9 9 10 10 10 10 9
24 24 25 26 27 29 31 33 35 34 33 33 29 30 26 13 7 6 6 6 9 12 10 1 4 2 1 2 4 6 5 3 3 4 4 3 3 5 6 7 8 7 6 6 6 6 5 4 2 1 1 1 2 1 2 3 2 1 3 5 3 3 4 2 2 1 1 1 4 8 7 5 2 1 4 3 1 1 6 9 8 8 8 8 9 8 9 9
24 24 25 26 28 29 30 33 34 34 34 34 31 27 18 9 6 3 2 7 11 6 0 4 4 3 0 3 5 5 2 2 3 3 4 3 4 8 7 5 4 4 5 5 4 3 3 3 0 1 1 0 1 1 3 5 3 2 2 4 4 5 6 3 2 3 1 2 5 9 11 12 9 3 1 2 1 2 5 7 8 7 7 7 8 8 9 9
23 24 25 26 28 29 30 32 33 33 35 35 32 22 11 6 5 1 1 11 9 3 6 4 2 2 1 3 2 2 1 1 2 3 4 5 7 7 4 3 2 2 4 3 1 1 1 2 1 1 2 1 2 2 5 5 4 4 4 4 4 5 7 7 4 1 2 3 6 9 12 15 15 12 10 8 6 8 9 8 8 8 9 8 8 9 9 10
22 24 25 26 27 28 29 32 31 32 36 37 31 15 5 7 3 2 5 12 6 3 1 2 0 3 1 1 2 2 1 1 2 2 3 5 7 5 4 3 2 1 2 2 1 1 0 1 2 2 3 4 5 6 7 5 3 5 6 7 7 7 7 5 3 1 1 6 10 12 14 16 15 15 14 11 10 14 14 10 9 10 10 10 9 9 9 11
22 23 24 25 26 26 28 30 28 30 34 36 28 9 4 8 2 0 7 9 4 0 4 2 1 3 1 0 3 2 1 1 1 2 3 4 5 5 3 2 1 1 1 1 2 2 1 2 3 5 4 3 6 9 7 3 3 3 5 6 8 9 8 3 2 3 2 5 12 12 15 17 15 14 15 12 10 14 15 13 13 12 12 11 12 13 12 12
22 23 24 24 25 25 27 28 25 26 29 29 24 10 4 6 3 3 7 4 2 3 4 2 1 3 3 3 3 3 1 1 1 1 3 3 3 3 2 2 2 2 0 1 2 2 2 4 5 6 4 1 3 6 4 1 0 3 4 6 7 8 9 5 5 6 4 4 11 10 12 17 14 13 14 12 11 14 15 15 15 15 14 12 13 15 14 12
22 23 24 23 26 25 26 26 20 21 24 24 23 13 5 5 3 3 4 4 2 3 5 4 1 2 3 4 4 3 2 1 2 2 2 3 2 2 2 2 2 1 2 2 2 2 3 5 5 4 1 1 1 3 4 4 4 4 4 6 7 5 7 7 6 5 4 5 8 7 10 15 13 12 14 14 13 14 14 16 16 15 15 13 13 13 14 13
22 23 24 24 26 25 28 25 13 17 22 19 18 11 5 7 4 3 3 5 5 3 2 3 1 1 1 1 2 3 3 1 2 2 2 3 3 1 1 2 1 1 2 4 4 3 2 2 2 4 2 5 3 4 5 4 5 6 5 6 7 4 4 5 2 0 3 6 8 7 9 13 12 11 15 15 15 15 14 17 17 15 15 15 13 11 11 14
21 23 24 26 26 26 29 19 7 18 20 11 13 10 6 9 5 2 2 3 4 2 1 1 1 1 2 2 3 3 2 0 1 2 1 4 3 2 1 1 1 2 3 4 5 6 6 1 2 2 3 5 3 5 7 5 4 7 9 9 9 6 4 5 2 2 4 8 9 8 9 12 10 9 12 11 12 15 13 14 16 15 15 14 12 11 11 13
22 23 24 26 24 28 27 8 5 22 16 3 8 11 10 10 4 3 2 2 2 2 1 1 1 1 2 3 3 1 1 1 2 1 1 2 2 2 1 1 2 3 1 3 4 7 7 2 3 3 3 4 5 5 7 6 4 6 11 13 12 10 5 4 3 3 6 7 6 6 7 10 6 7 8 5 6 11 10 11 15 14 13 12 11 12 12 13
22 22 24 24 24 30 21 2 9 23 9 3 5 12 13 10 1 5 2 2 1 1 0 2 1 2 1 1 1 1 1 2 2 1 1 0 1 1 1 1 1 1 1 2 2 4 4 2 4 7 6 7 8 7 6 7 6 7 5 9 12 12 7 5 5 4 5 5 0 4 6 10 8 5 8 5 5 11 9 10 13 10 9 10 10 11 11 12
21 22 23 23 24 28 16 4 15 19 3 1 10 15 14 6 2 4 2 1 1 1 1 1 1 1 1 2 1 1 0 1 1 2 1 1 1 1 2 2 2 1 2 1 4 2 3 3 4 7 8 8 8 7 7 9 8 5 4 5 8 9 9 9 8 7 6 5 1 3 6 9 12 10 6 9 8 11 10 13 12 8 9 11 11 11 11 11
21 22 23 22 23 24 15 12 17 10 3 8 14 14 10 1 4 3 1 1 0 1 2 2 1 2 0 1 1 1 1 1 0 2 2 2 1 1 3 3 3 2 3 4 6 1 3 5 6 7 8 8 6 4 8 12 9 2 5 3 3 4 6 7 7 7 6 6 5 7 7 7 11 9 5 9 10 10 10 14 13 11 12 12 11 11 11 11
22 22 22 23 24 22 19 17 12 7 8 12 13 11 5 2 4 2 1 1 0 2 2 2 3 1 2 1 1 3 1 1 2 2 2 1 1 1 1 1 2 2 3 6 9 2 1 3 3 4 6 6 4 3 8 12 8 2 7 4 4 3 2 5 6 6 5 8 9 11 11 8 12 10 4 7 8 8 10 11 12 13 11 9 11 12 11 10
22 21 22 26 24 21 22 17 9 9 12 12 10 8 2 2 2 1 1 2 0 2 2 1 2 2 5 2 1 3 2 1 2 2 1 1 2 1 1 1 1 2 4 6 10 7 2 2 1 3 6 3 1 2 7 11 6 5 5 2 1 3 3 3 4 4 6 9 12 17 17 12 10 10 6 5 4 6 9 9 10 11 9 10 12 12 10 10
21 20 23 26 22 19 18 10 8 12 12 10 8 4 1 2 0 1 2 2 1 1 1 2 1 3 4 3 1 1 2 1 1 1 2 1 2 3 2 2 1 1 5 6 10 9 6 7 4 4 6 2 0 2 6 7 4 3 3 2 4 5 4 3 4 6 8 10 13 18 18 16 13 9 8 6 3 6 10 9 10 10 11 12 9 8 9 9
21 21 26 27 20 14 9 6 11 13 9 9 7 2 2 1 1 2 2 2 1 0 1 2 2 2 3 2 2 2 1 1 0 2 3 2 3 4 5 5 2 2 7 6 5 5 6 11 9 5 5 7 7 7 5 4 4 5 5 4 6 7 5 6 6 7 9 10 11 12 11 12 13 12 16 16 10 11 11 9 11 13 13 11 8 8 8 6
21 25 30 24 11 6 6 9 13 10 8 9 5 2 0 1 2 3 2 2 1 2 2 2 1 1 1 1 2 1 0 1 2 1 1 1 3 4 5 5 1 3 7 4 4 5 5 8 10 7 5 9 12 9 6 6 7 10 8 7 9 7 7 10 8 7 9 9 10 10 8 8 8 11 21 26 20 17 17 15 15 14 13 13 10 6 4 4
23 29 29 16 3 3 9 12 10 8 9 7 2 1 1 2 3 1 2 2 1 2 1 2 2 1 3 3 2 1 3 2 2 1 2 3 3 3 4 5 5 5 6 6 6 7 8 6 6 7 2 6 14 13 12 9 7 11 10 8 10 8 8 9 7 7 7 6 5 6 7 7 6 5 13 18 12 9 16 19 16 13 13 14 11 6 4 5
27 30 22 8 3 5 10 11 8 8 8 4 0 0 2 4 3 1 1 2 1 2 2 1 1 3 3 2 1 1 3 2 2 0 2 3 3 2 2 3 4 5 6 8 5 3 10 8 1 1 3 3 11 11 11 10 9 9 9 9 12 11 10 10 9 8 6 5 4 5 5 6 4 5 5 7 2 3 9 15 14 13 13 12 11 10 10 7
29 27 14 5 6 8 11 11 9 7 6 2 1 2 3 3 1 1 1 2 1 3 5 3 0 1 3 0 2 2 1 2 1 1 1 2 2 2 1 1 2 1 2 6 3 1 7 6 3 7 8 3 7 6 6 9 8 5 8 11 8 5 8 11 13 10 7 9 8 7 9 9 7 9 10 12 11 7 10 10 12 11 10 10 10 11 12 7
28 22 9 4 8 9 10 11 9 6 3 1 3 3 2 1 1 1 2 2 1 2 4 4 1 1 2 1 0 1 2 1 2 1 1 0 1 2 4 3 3 3 2 2 3 1 3 5 4 8 12 8 3 6 9 11 8 6 7 7 3 2 3 7 10 10 10 12 10 11 17 15 10 10 9 14 20 16 8 6 7 9 8 9 9 11 12 7
22 14 3 2 7 9 9 10 7 4 1 2 4 4 1 2 2 2 3 2 1 0 1 3 1 1 1 1 1 1 2 1 2 1 2 2 2 5 5 2 2 3 4 4 1 1 3 6 5 5 11 9 4 4 10 11 11 12 8 2 2 4 4 5 8 9 11 12 9 13 19 16 12 12 10 12 17 16 9 5 5 8 10 11 9 10 10 6
16 7 1 1 5 7 10 9 6 2 1 2 4 2 1 1 1 2 3 3 1 0 2 4 3 2 2 1 0 0 1 2 2 4 4 2 3 4 5 1 2 3 4 4 1 2 3 5 4 2 4 5 4 3 7 7 7 8 5 3 5 7 6 6 7 6 9 12 11 13 14 11 10 11 14 18 18 18 15 9 5 8 12 12 7 5 6 5
7 3 1 1 5 10 12 7 2 1 2 2 2 1 1 1 1 1 3 4 2 1 2 3 3 3 2 1 3 2 1 3 4 6 6 3 5 2 5 4 3 4 5 4 2 3 2 5 8 3 2 5 6 4 3 2 3 3 4 5 6 5 5 6 7 5 6 9 9 10 11 10 6 3 6 12 12 9 8 8 7 7 10 11 8 6 6 5
2 1 1 1 10 15 9 1 2 2 2 1 1 1 1 1 1 3 3 3 1 2 2 2 4 5 4 5 5 2 1 3 4 5 7 5 7 4 4 6 5 5 6 4 3 4 3 5 8 7 6 9 9 4 1 3 4 4 5 6 6 6 5 7 8 6 6 7 7 9 11 7 2 3 4 5 6 6 7 7 7 8 9 10 9 7 7 6
1 2 2 7 12 8 2 2 1 1 2 2 0 1 2 3 2 2 3 1 1 1 1 1 2 3 4 5 3 1 2 4 4 5 5 3 3 2 4 5 5 5 4 2 3 4 1 2 6 8 9 10 10 7 7 9 8 6 7 6 7 7 6 6 6 4 5 6 7 9 11 6 1 3 5 6 7 7 7 7 7 7 8 9 10 8 7 7
3 3 7 10 8 2 2 1 2 2 2 1 1 2 2 2 2 2 2 1 0 1 0 1 1 1 2 1 1 2 4 4 5 4 2 3 2 3 4 4 6 5 3 2 4 4 1 1 5 7 7 9 9 8 7 5 4 6 7 6 6 6 5 4 5 5 5 5 7 9 9 5 1 2 3 5 7 7 8 9 8 7 8 9 11 9 7 7
3 4 5 6 5 1 1 1 2 3 2 1 2 4 4 4 4 4 3 0 1 1 0 1 3 2 2 2 2 3 5 4 3 1 2 3 1 4 4 4 7 5 3 2 4 5 3 3 3 3 6 8 8 8 6 3 1 3 4 4 5 6 7 6 5 6 5 6 9 9 9 6 3 4 3 4 7 7 8 8 8 7 8 9 10 9 7 6
3 2 2 3 4 1 1 1 1 1 2 2 2 4 5 4 2 1 1 1 2 2 1 2 3 3 3 3 1 3 5 6 4 2 2 4 2 1 2 5 8 5 4 7 8 5 3 5 5 5 8 8 8 8 6 3 3 4 6 8 9 8 8 8 6 6 6 7 9 9 8 7 9 12 10 7 10 10 10 9 8 7 7 8 8 7 6 5
2 1 1 2 2 2 1 1 2 1 1 2 2 2 2 2 1 0 1 4 5 4 4 5 3 3 3 2 1 2 4 5 6 4 3 6 6 3 1 5 6 3 7 11 9 2 1 5 7 8 9 9 10 10 9 9 8 9 12 15 15 12 10 8 7 8 8 7 8 9 8 8 11 13 12 10 12 13 12 12 11 9 8 8 6 5 5 4
1 1 1 2 1 1 1 0 1 1 1 1 2 1 1 3 2 2 2 3 2 2 2 3 3 4 4 2 2 3 2 2 5 5 5 7 7 4 3 4 2 4 8 9 6 2 2 7 8 9 11 12 12 12 12 12 11 12 15 19 19 17 13 11 10 9 9 8 7 7 8 9 11 13 14 13 12 11 11 11 12 11 10 9 7 7 6 6
0 1 1 0 1 2 2 1 1 1 3 4 4 4 6 7 6 4 3 3 1 1 1 2 3 6 7 4 3 4 3 3 5 4 3 3 3 3 3 1 1 5 7 5 3 2 4 8 8 8 12 13 12 13 12 11 10 12 15 18 19 20 18 14 12 11 10 9 9 9 12 13 14 15 14 10 9 9 9 9 10 11 12 13 12 12 12 12
1 2 1 1 1 3 5 5 5 7 8 8 7 6 7 9 10 9 5 2 0 2 4 6 7 6 5 4 4 3 5 6 5 4 3 3 4 3 3 4 4 6 6 4 3 3 4 9 9 9 13 14 13 12 12 12 12 13 16 17 18 19 19 17 15 14 14 14 12 13 16 16 13 10 8 9 8 7 8 10 11 14 15 15 15 15 15 15
2 4 2 1 3 5 6 7 7 8 8 8 8 7 7 10 12 10 4 3 2 4 4 6 8 6 4 5 5 5 7 7 9 8 6 6 7 5 5 5 4 4 4 4 3 3 4 9 9 7 10 12 11 12 14 15 14 14 17 18 17 17 18 18 15 13 13 15 15 15 17 14 6 6 8 9 9 9 11 13 13 14 15 15 15 15 15 15
6 6 4 4 5 5 5 5 5 6 7 7 7 7 7 8 8 6 3 4 7 7 4 5 6 2 2 4 6 7 8 8 11 11 8 7 7 5 4 3 2 2 4 5 4 3 5 7 7 6 10 11 10 12 15 15 15 16 17 18 18 17 15 14 13 13 13 13 14 15 12 8 6 8 7 9 12 12 13 14 13 13 14 15 15 15 15 15
5 5 4 4 4 4 6 6 5 6 4 3 6 6 5 5 3 3 3 4 5 4 3 4 3 1 2 5 7 8 6 6 8 7 5 4 4 4 5 5 5 6 7 7 7 6 7 7 6 7 9 10 9 10 11 11 12 13 12 14 17 17 16 17 17 15 11 7 9 10 4 4 9 9 8 10 12 12 12 13 12 12 13 13 14 14 14 15
Wind_Direction
4 2 0 359 359 358 357 356 354 353 352 351 349 348 347 345 345 344 342 343 342 339 337 337 335 335 336 349 356 358 23 118 132 114 107 92 76 60 26 2 353 13 65 52 75 112 102 93 81 97 132 112 5 160 118 346 52 199 194 210 226 214 205 178 191 202 308 323 173 185 197 209 213 183 181 168 196 234 263 252 250 263 249 221 174 297 299 301
3 2 359 358 357 356 355 354 353 352 350 349 347 346 344 342 342 341 342 344 342 337 334 334 332 332 332 346 355 355 42 115 123 98 89 79 70 66 28 351 5 54 97 75 64 85 118 97 83 114 128 112 10 142 183 347 282 209 190 218 229 222 219 56 256 295 335 317 250 204 207 217 223 200 176 216 221 207 249 253 234 257 251 215 191 226 270 193
2 1 358 357 357 355 353 352 350 350 349 347 345 344 342 341 339 339 341 343 340 333 330 329 331 335 330 340 351 357 68 138 130 84 84 76 65 90 32 344 53 85 108 101 73 66 92 97 99 124 114 93 67 132 175 116 263 206 202 231 225 324 353 37 27 13 1 347 311 245 203 221 233 216 176 239 248 217 233 245 230 250 252 228 206 198 214 181
0 358 356 355 355 353 352 350 348 348 347 345 343 342 340 338 338 337 339 340 336 330 327 326 333 345 339 339 347 5 115 174 138 86 113 78 48 31 22 350 97 97 103 108 91 85 96 98 85 83 111 103 83 140 162 71 321 187 216 240 159 15 284 48 35 20 5 1 341 311 243 232 261 303 229 244 257 239 236 239 226 232 247 250 211 193 203 184
359 356 355 354 353 352 350 348 347 346 345 344 341 340 338 336 338 338 339 338 332 327 325 327 338 357 349 338 344 21 175 206 90 119 130 66 29 349 333 316 109 105 111 120 104 101 107 101 96 87 95 116 134 155 142 58 7 205 224 275 29 5 267 22 23 14 1 355 356 336 294 295 328 292 248 247 246 249 258 225 218 222 243 263 238 205 207 195
357 355 354 354 353 350 349 348 346 345 343 342 340 338 335 336 339 338 339 337 332 327 324 331 346 9 357 344 346 16 217 276 83 134 135 62 296 298 314 280 148 118 119 134 120 128 131 123 154 131 113 117 149 148 111 80 351 238 222 354 35 34 300 329 354 356 2 341 334 327 312 323 313 279 261 251 248 263 6 62 73 110 155 287 296 249 218 209
355 354 353 353 351 350 348 346 344 343 341 340 339 336 335 337 339 339 339 338 337 336 325 333 354 15 2 353 347 1 215 47 100 144 135 45 277 284 313 134 157 135 134 149 140 152 144 146 158 133 125 115 144 135 103 92 3 248 238 11 351 17 306 314 335 325 334 312 302 305 300 293 275 277 280 257 258 272 301 339 58 118 125 127 268 260 246 226
354 353 352 351 350 349 347 345 343 341 339 339 338 338 339 340 340 338 338 342 352 342 323 334 359 358 359 359 342 211 76 93 124 130 60 345 302 272 156 136 159 146 133 139 152 161 148 149 148 152 146 111 144 136 118 170 154 236 253 354 322 324 288 291 310 302 306 294 288 280 272 268 261 272 274 260 261 267 278 292 287 241 195 184 223 246 260 248
353 352 351 350 349 348 347 345 343 340 338 339 340 342 343 342 342 340 341 355 5 349 338 352 355 325 349 5 343 240 80 120 127 84 43 8 353 116 147 137 146 149 122 99 121 186 189 165 154 197 143 110 151 130 133 215 158 217 276 336 301 293 289 293 288 276 280 276 286 280 269 264 251 263 271 253 247 251 248 261 266 251 236 222 215 223 236 242
352 351 350 350 349 347 346 344 342 340 338 340 343 344 343 342 343 343 347 359 11 17 11 8 356 334 340 356 209 267 111 123 110 72 61 59 69 102 121 120 131 146 119 83 64 9 263 161 141 195 117 108 147 129 140 222 102 146 280 297 278 283 289 283 272 257 256 259 257 264 267 266 241 216 262 242 202 235 232 242 250 246 247 235 222 222 225 227
351 351 349 349 348 347 345 343 341 339 338 341 344 344 342 341 341 342 349 1 23 38 3 356 353 346 339 292 211 134 119 117 93 79 64 70 105 102 97 100 124 139 118 87 67 44 55 123 133 193 130 126 134 129 140 128 95 188 283 281 260 274 282 257 258 254 238 251 240 241 264 267 233 218 248 258 243 235 222 237 241 244 249 239 230 227 226 230
351 350 349 348 347 347 345 343 342 339 338 341 344 344 341 339 338 338 345 353 24 24 346 333 341 353 350 132 72 108 123 117 94 68 61 93 102 90 84 88 112 134 129 105 80 79 101 124 146 87 57 158 146 134 136 123 289 245 276 283 265 265 274 260 267 252 213 236 201 213 276 268 211 216 240 244 249 242 234 240 239 239 245 242 236 228 226 229
351 350 348 348 347 346 345 343 342 339 338 341 344 343 340 338 336 331 330 311 291 355 336 320 326 336 257 128 74 129 134 120 104 72 83 95 86 80 78 84 103 119 129 119 101 98 107 121 141 88 66 161 133 116 127 129 265 246 222 267 292 275 252 225 336 246 202 221 166 195 276 274 146 179 232 251 257 243 240 244 243 240 242 245 241 235 232 226
350 349 348 347 347 346 345 343 341 338 338 341 343 343 339 335 333 327 308 285 267 298 325 319 306 310 258 96 90 148 136 124 115 92 90 89 84 81 74 81 101 111 118 116 106 98 103 112 118 107 65 6 94 133 158 155 218 270 240 200 286 284 184 108 87 183 187 165 169 209 252 259 80 36 2 337 332 270 251 252 251 247 246 249 246 246 245 231
349 348 348 348 347 346 345 344 341 338 338 342 344 343 337 331 332 324 298 294 285 300 320 318 243 253 142 101 116 146 133 132 109 79 80 97 98 82 74 88 99 106 114 110 108 104 107 117 118 106 84 5 158 174 196 193 148 311 273 238 213 252 257 134 131 199 235 47 162 204 249 268 305 339 359 354 350 222 255 261 262 258 256 260 259 257 258 254
349 348 348 348 347 346 346 345 342 338 338 343 345 342 335 326 332 319 292 313 314 306 312 268 179 210 174 93 128 139 122 114 100 74 85 106 118 107 101 99 94 99 108 105 111 103 79 84 82 47 87 180 191 190 262 250 212 155 246 270 272 261 287 322 102 126 283 36 188 214 251 276 243 32 18 4 28 213 258 262 266 265 262 266 268 266 265 267
350 349 348 347 347 346 346 345 343 338 338 344 347 342 333 322 334 331 274 337 335 318 195 140 160 183 108 86 130 141 83 62 99 88 85 105 138 133 120 98 87 99 107 104 107 93 38 39 75 259 65 108 180 206 267 261 251 184 200 261 265 253 275 280 144 90 93 212 225 228 245 261 255 240 291 310 342 287 263 263 269 271 269 266 268 271 269 266
349 348 348 346 346 346 345 345 343 338 338 345 347 340 333 334 343 71 330 343 350 121 128 105 152 200 86 93 111 88 47 27 78 94 91 112 138 144 136 111 119 141 134 124 90 61 3 32 211 203 127 193 194 193 248 273 288 282 262 260 265 244 246 251 237 62 35 251 252 247 249 259 261 259 255 250 257 265 261 260 267 271 273 271 264 265 268 269
348 347 346 346 347 346 345 345 343 339 339 347 349 342 349 356 339 159 3 357 12 149 119 31 3 287 350 108 347 2 30 0 45 123 109 115 134 136 113 97 101 175 196 185 100 75 63 120 151 196 196 208 198 206 244 284 318 284 277 272 278 271 251 245 246 249 322 278 265 255 258 262 262 264 261 251 249 261 264 263 265 266 267 268 265 262 259 262
346 346 346 346 347 345 345 345 341 341 344 351 357 2 29 5 331 218 1 4 28 301 305 348 21 303 309 15 327 325 246 283 39 127 126 129 134 130 110 78 96 153 231 243 84 61 287 218 205 234 244 214 202 218 247 334 30 274 277 271 264 269 266 242 224 219 166 269 266 254 259 265 264 266 267 262 253 257 263 262 261 260 259 257 259 262 261 260
346 346 346 347 347 345 346 344 341 343 349 3 20 44 57 10 357 341 340 339 42 15 329 353 118 269 272 273 311 341 284 214 109 119 151 146 139 156 147 136 189 175 57 29 81 92 251 241 232 245 266 331 224 229 243 270 114 253 259 266 260 258 261 243 234 235 176 238 269 270 271 270 266 262 264 267 257 253 258 258 255 256 256 253 252 258 262 265
346 345 345 345 346 344 344 342 338 345 357 21 43 65 78 22 346 311 313 290 319 350 318 314 239 242 255 250 269 303 276 185 138 153 164 148 161 208 141 141 208 150 104 154 156 173 229 242 266 301 307 95 118 203 221 224 228 245 242 260 265 254 260 253 240 246 217 235 269 286 282 276 271 259 256 258 254 250 248 249 252 253 254 254 251 252 255 260
344 345 345 344 344 342 342 339 330 351 7 33 51 64 60 12 334 265 274 281 294 303 297 317 336 1 0 256 203 198 222 236 137 131 136 168 173 192 162 167 180 120 175 199 210 249 261 228 323 346 147 156 145 159 179 202 221 230 225 249 258 236 251 263 242 198 234 239 267 301 297 281 273 254 251 250 245 247 241 241 250 251 252 256 255 255 254 257
344 344 342 342 343 341 340 335 326 356 6 42 53 43 21 2 343 272 267 274 289 306 304 328 324 327 14 81 146 179 211 302 90 90 130 187 162 147 202 183 177 220 218 195 211 253 265 190 79 42 152 169 183 169 178 205 231 220 214 233 252 244 236 257 301 357 271 245 250 282 296 279 258 230 246 247 233 243 243 240 248 249 249 256 257 257 256 254
344 342 341 343 344 341 339 339 1 354 354 80 44 15 355 349 345 199 249 290 264 277 267 214 194 159 105 112 140 235 218 115 39 35 171 190 159 140 140 111 232 253 189 157 204 255 264 200 153 226 211 190 217 212 196 209 258 244 220 221 241 260 259 254 287 308 287 266 226 232 275 282 254 187 229 248 227 242 236 230 243 245 245 249 253 252 245 242
342 342 343 344 343 343 346 27 347 344 347 130 1 343 342 343 349 168 216 310 195 174 125 171 159 159 161 71 56 277 185 126 25 0 134 310 290 218 159 154 220 292 90 145 225 259 254 191 201 240 237 214 230 241 198 184 253 270 216 199 228 253 252 230 241 234 261 292 142 174 252 285 286 232 213 199 237 252 237 232 239 235 238 242 243 246 241 235
345 344 342 343 344 346 351 331 328 337 3 13 326 328 335 339 180 182 236 314 160 135 106 147 142 166 206 347 324 253 203 111 105 103 67 358 297 243 225 190 180 229 122 191 273 237 174 186 221 233 230 225 232 236 191 180 236 270 102 155 210 230 232 221 225 225 240 285 339 184 235 275 280 266 196 171 227 256 250 251 248 226 226 237 239 242 245 241
344 341 340 341 339 339 338 318 321 332 334 318 320 324 334 15 174 197 252 336 317 106 86 110 128 115 125 301 318 1 0 312 87 88 19 346 342 222 237 227 230 232 153 207 258 266 136 199 220 219 221 226 228 216 178 186 228 268 96 124 183 205 227 210 214 232 242 261 255 221 219 251 269 266 152 166 221 244 246 256 258 244 231 231 241 242 243 247
338 337 338 337 335 334 331 325 319 317 324 325 323 322 334 142 191 208 38 302 270 85 64 108 148 63 337 275 24 38 35 335 16 35 329 333 52 51 294 265 260 258 212 225 247 269 98 221 243 238 231 232 233 183 165 193 219 118 111 109 99 128 184 189 215 231 222 238 244 226 210 225 264 264 195 187 221 229 240 249 250 251 244 229 238 243 240 244
337 336 336 336 336 333 330 331 332 329 331 328 325 324 321 181 206 30 349 258 103 81 66 116 160 343 337 319 27 37 51 19 35 42 345 71 90 84 65 58 29 267 248 247 253 253 240 248 291 252 243 257 318 135 179 205 199 112 131 151 157 177 154 171 221 215 224 237 233 227 216 214 253 267 242 223 220 228 244 250 242 245 249 241 237 239 242 244
339 336 335 335 332 326 323 326 338 338 334 328 332 330 228 208 169 111 220 243 93 101 85 71 55 8 17 31 351 3 42 349 8 112 173 140 166 168 168 195 128 259 250 248 252 245 233 237 234 219 219 207 254 214 202 208 181 149 203 240 265 239 184 193 213 201 232 242 229 228 219 215 236 257 262 255 218 238 252 253 252 246 241 243 241 235 239 243
337 333 334 333 325 319 317 315 329 337 337 335 336 288 217 286 253 199 243 310 22 78 68 81 48 16 50 75 239 272 358 308 130 175 199 193 202 190 204 219 169 266 255 241 243 241 224 225 221 212 195 191 220 236 205 182 186 208 217 222 250 256 237 235 225 209 229 235 230 230 216 218 238 250 262 265 250 248 260 257 255 255 251 251 251 241 235 235
335 330 333 335 330 328 338 327 326 334 339 338 324 231 112 347 243 201 232 299 22 30 47 83 39 343 159 225 238 208 252 223 159 191 207 170 227 221 223 226 170 276 265 262 286 285 257 223 202 197 197 195 210 228 223 202 196 204 208 214 228 240 246 243 235 229 240 238 233 230 222 232 240 232 244 253 252 248 253 254 248 250 257 261 261 255 247 240
331 329 334 342 358 341 341 333 328 336 337 333 291 234 59 259 255 190 210 258 310 343 48 92 341 275 192 224 279 201 218 212 111 210 220 190 224 235 216 208 200 236 262 274 273 262 262 259 182 173 180 188 201 220 238 241 223 210 205 214 223 222 234 239 237 241 253 260 229 204 216 230 230 211 221 238 253 246 247 255 254 250 253 258 264 270 263 246
329 333 341 5 48 351 347 344 341 343 335 320 239 157 204 246 259 159 206 280 321 326 302 183 295 296 240 202 4 309 233 200 84 46 232 212 239 260 226 213 211 234 250 251 257 239 246 258 121 118 356 161 199 222 237 242 245 225 202 214 229 230 238 249 262 266 280 291 250 198 228 239 257 310 263 246 289 135 222 253 260 259 253 250 259 263 256 243
332 339 351 34 39 16 3 355 351 347 332 299 162 190 215 250 264 121 55 0 9 345 317 297 128 308 292 271 58 3 278 203 73 0 221 204 266 260 185 34 17 356 235 239 271 339 236 239 35 350 324 253 224 259 258 242 252 238 205 218 234 248 252 256 265 269 266 264 250 227 249 253 260 280 264 257 263 219 199 228 249 261 262 253 254 257 258 249
337 340 348 36 25 13 3 356 349 342 336 186 190 223 218 153 59 54 38 15 326 11 338 315 56 125 290 312 144 14 341 229 118 62 225 271 293 165 124 73 60 73 37 303 280 283 253 271 312 307 288 274 290 312 275 255 259 262 238 230 245 289 254 248 259 259 250 254 251 241 252 255 255 260 240 240 255 248 205 187 237 268 279 266 256 258 267 275
338 334 326 14 359 354 354 354 351 346 27 164 224 247 194 110 57 45 49 27 267 9 341 264 223 154 225 280 218 90 336 267 98 28 303 282 225 135 104 55 93 83 13 13 300 316 9 300 272 239 250 263 9 330 266 250 241 247 256 251 225 250 246 229 239 246 246 253 255 247 252 253 250 257 254 245 252 256 243 198 216 252 268 267 260 261 270 279
342 334 270 8 358 350 348 352 359 6 139 181 234 247 119 334 3 65 42 4 328 327 292 244 234 235 201 171 338 244 236 249 309 306 291 259 212 119 72 342 130 71 9 36 349 299 2 301 273 153 222 282 355 293 254 252 250 254 267 253 235 252 266 255 249 251 249 254 260 254 252 251 247 250 255 254 254 260 268 274 269 270 276 279 283 284 278 269
354 331 225 56 351 336 339 355 42 141 182 189 222 225 63 313 308 59 32 17 4 279 282 254 255 264 249 309 309 293 222 249 274 273 267 272 279 320 48 29 34 26 355 4 281 275 325 276 267 253 246 290 292 251 219 264 297 302 291 273 257 259 276 272 262 252 252 261 265 261 257 254 257 275 266 262 265 278 302 319 323 323 313 309 323 325 298 278
348 339 161 302 325 327 334 15 120 154 201 217 196 240 338 14 321 314 343 27 348 260 258 269 266 263 272 291 295 308 297 274 268 258 252 258 281 293 78 66 26 10 357 348 294 283 289 267 272 271 257 263 267 260 277 297 291 284 280 281 280 278 278 271 257 231 231 252 256 262 267 259 263 20 6 350 359 14 12 354 341 344 332 318 322 319 302 282
340 357 303 313 326 339 55 154 134 121 208 236 159 218 315 353 337 304 330 8 266 248 184 232 253 243 257 279 289 284 300 283 253 251 264 271 304 340 92 74 37 29 18 345 306 310 313 266 281 274 263 271 280 284 285 286 285 272 261 262 270 274 266 264 275 270 255 263 266 263 263 254 90 30 24 32 27 26 20 3 352 345 333 325 321 317 304 285
340 307 303 323 339 23 130 184 156 170 220 265 311 254 268 310 266 230 266 300 262 285 152 218 267 248 231 220 206 247 292 295 243 234 313 343 21 81 90 52 32 28 11 327 309 314 1 270 276 268 275 282 277 268 263 269 270 253 249 252 262 280 284 273 280 292 289 278 279 275 263 252 58 41 47 41 18 17 18 5 356 346 342 340 327 320 311 291
317 277 294 345 9 90 242 291 165 202 236 266 275 263 258 261 251 250 260 271 76 73 89 268 273 263 213 164 161 241 273 288 250 238 315 278 238 106 98 33 16 11 359 311 294 296 289 284 277 281 293 284 265 253 235 193 164 265 277 287 286 297 305 296 269 268 268 240 241 257 262 260 291 292 293 7 4 6 12 6 1 351 346 345 332 325 321 304
312 267 244 345 5 45 248 316 94 206 277 315 279 266 266 253 230 236 282 317 292 236 257 273 239 227 239 232 214 229 244 256 274 319 291 265 288 102 94 7 4 2 328 295 290 293 281 280 280 277 280 273 266 265 263 286 323 307 299 295 291 290 290 293 281 261 261 246 238 250 264 277 294 292 296 336 353 353 356 0 6 1 352 349 337 330 327 320
327 298 259 332 5 69 84 56 77 101 321 337 318 294 264 222 188 345 292 289 273 234 247 262 223 219 248 228 234 236 228 253 271 280 272 279 294 287 318 354 350 308 293 294 295 309 213 266 264 257 263 267 270 278 296 308 300 292 294 292 289 284 273 271 267 257 273 288 272 271 288 299 298 297 306 332 344 344 346 352 358 4 4 359 351 350 354 356
321 261 275 339 27 106 270 224 96 103 97 326 302 309 243 221 246 303 247 235 236 190 239 254 202 226 241 184 205 247 221 238 255 253 259 268 280 296 329 6 0 276 288 296 298 310 263 261 253 247 255 262 268 277 285 287 281 280 285 285 285 285 275 263 258 262 281 296 282 289 317 316 300 298 305 320 335 343 354 0 358 1 6 7 13 23 29 37
247 213 168 63 256 257 259 188 129 258 261 262 255 243 252 250 248 256 231 199 174 133 198 251 222 233 244 219 208 260 275 256 240 233 239 253 267 303 321 36 174 261 281 288 278 259 258 264 256 247 254 257 260 270 273 271 272 272 272 273 275 279 277 269 264 266 271 272 274 295 311 304 292 296 310 335 358 4 13 13 7 9 11 12 20 25 26 30
252 264 222 137 214 259 268 266 271 273 263 255 252 246 250 254 251 247 228 152 263 233 206 236 243 228 228 207 180 225 259 261 257 239 218 249 260 269 283 274 251 245 244 245 236 205 235 262 255 243 254 257 255 263 268 266 265 264 264 266 267 272 276 275 273 271 266 264 266 278 285 281 283 307 343 15 23 25 27 20 17 18 14 13 20 22 20 20
280 287 288 231 242 250 259 257 256 265 258 244 252 254 243 248 253 253 226 142 227 246 191 219 245 237 230 220 196 213 236 249 268 268 262 268 266 263 268 269 261 231 216 232 243 206 232 259 261 256 262 260 252 256 262 264 265 264 263 264 264 266 271 275 278 273 266 265 264 264 266 265 289 8 30 33 27 31 29 20 19 20 15 14 17 16 17 15
246 251 247 268 272 257 255 246 219 245 259 244 249 256 251 252 253 258 258 196 213 231 215 229 254 248 196 211 221 237 238 240 256 263 263 263 260 269 273 242 213 231 232 241 252 246 247 262 276 277 267 265 258 256 261 266 270 267 262 261 262 263 268 275 275 268 268 272 271 267 264 269 327 7 37 43 35 37 31 20 16 14 15 18 16 12 13 11
251 245 233 251 270 256 256 258 233 240 252 234 247 257 260 263 232 210 262 231 212 229 219 206 218 199 208 224 235 248 250 248 260 269 268 250 240 258 261 238 234 246 253 256 257 255 255 261 270 265 263 269 265 261 270 274 267 262 255 253 255 256 261 265 264 265 275 288 276 272 292 354 349 3 43 47 37 37 33 25 17 9 9 15 16 13 10 9
Height
844 842 840 838 836 835 833 832 831 829 827 825 824 822 820 818 816 815 813 811 809 807 806 805 804 802 801 801 799 798 798 798 798 798 798 798 798 798 798 798 797 796 796 796 795 795 794 794 794 795 794 795 797 797 798 798 798 798 798 803 803 802 802 797 796 795 792 791 791 792 791 791 793 793 791 791 793 794 792 790 788 786 785 785 786 786 785 785
844 842 840 838 836 834 833 831 830 828 827 825 823 822 819 817 815 813 812 810 808 806 804 803 802 802 801 800 799 798 797 798 799 799 799 799 799 799 798 798 797 796 796 796 795 795 794 794 794 794 793 796 798 798 798 798 798 797 798 801 797 796 797 793 792 792 792 792 789 789 790 791 791 790 790 790 789 790 791 788 787 787 784 784 785 786 785 785
844 842 840 838 836 835 833 831 829 827 825 824 822 821 819 817 814 812 810 808 807 805 803 802 801 800 800 799 798 797 797 798 798 799 800 800 800 799 799 797 797 796 796 796 796 795 794 794 794 794 794 796 799 799 798 799 799 796 798 799 794 794 796 794 795 795 796 794 791 790 791 792 789 788 791 790 786 785 787 785 786 788 786 785 785 785 785 785
844 842 840 838 836 835 833 831 829 827 825 823 821 819 817 816 814 811 809 807 805 804 802 801 800 800 799 798 797 796 797 796 797 800 800 800 800 800 799 798 797 797 796 796 796 795 795 795 794 794 794 796 800 800 799 801 800 797 798 797 795 798 797 796 798 799 800 798 796 794 793 794 791 791 791 790 789 785 782 781 783 786 785 785 785 785 785 784
844 842 840 838 836 834 832 830 829 827 825 823 821 819 816 814 812 810 808 806 804 803 801 800 799 799 798 797 796 797 796 792 795 801 800 800 800 800 799 798 798 797 797 796 796 796 796 795 794 795 794 796 800 799 800 803 802 800 797 797 799 801 798 797 799 802 802 800 800 798 796 796 794 794 792 791 791 785 781 780 781 783 784 784 785 785 784 784
844 842 840 838 836 834 832 830 828 827 825 823 821 818 816 813 811 808 806 804 803 801 800 799 799 798 798 796 795 796 794 791 797 801 799 800 800 799 799 799 799 798 798 797 796 796 796 796 794 795 795 797 799 798 802 804 803 800 797 799 802 803 802 799 800 803 803 802 802 800 798 797 796 795 792 790 789 783 781 782 783 784 784 785 784 785 785 784
844 842 840 838 836 833 831 829 827 825 824 822 820 817 815 812 810 807 805 803 802 801 799 799 798 798 797 796 795 795 794 795 800 800 799 800 799 799 799 799 799 798 798 797 797 796 795 795 794 796 796 798 800 800 804 805 804 802 799 802 802 803 804 801 802 802 803 803 801 800 799 798 798 795 791 790 786 783 782 782 784 785 785 786 784 784 784 783
844 842 840 838 835 833 831 828 826 824 822 820 818 816 813 811 808 806 804 802 801 800 799 798 798 798 797 796 795 794 794 799 801 800 800 799 799 799 799 799 799 799 799 798 797 796 795 795 795 796 796 799 801 801 806 805 804 804 801 804 804 804 803 802 804 803 802 801 799 800 799 796 794 794 792 789 785 783 783 782 783 784 784 785 785 784 783 783
845 843 840 838 835 833 830 828 826 823 820 818 815 813 811 809 807 804 802 801 801 800 799 798 798 798 796 796 795 792 795 800 800 800 800 799 799 799 799 799 799 799 799 798 798 797 796 796 796 796 795 800 802 802 806 802 801 805 804 806 806 803 802 802 803 803 802 800 799 799 795 791 790 793 789 783 782 781 781 782 781 782 784 784 784 783 783 783
845 843 840 838 836 833 830 828 825 822 819 816 813 811 809 807 805 803 801 800 800 799 799 798 798 798 796 796 794 791 797 801 800 801 800 800 800 799 799 799 799 799 799 799 799 798 797 797 797 796 795 800 802 804 806 802 803 808 807 807 806 803 803 803 802 801 802 800 799 798 793 788 789 792 786 778 778 779 780 781 780 781 782 782 783 782 782 782
845 843 840 838 836 833 830 827 824 821 817 815 812 810 807 805 803 802 801 800 799 799 799 798 798 797 796 795 792 793 799 801 800 801 800 800 800 800 800 800 800 800 799 800 800 799 799 798 799 798 796 798 802 806 806 805 806 808 808 805 803 803 802 801 800 800 801 799 796 796 794 788 790 791 784 779 778 777 779 780 779 780 779 779 780 780 781 780
845 843 840 838 835 833 830 827 824 820 816 814 811 809 806 804 802 801 800 799 799 798 798 797 797 797 796 794 793 797 800 801 801 801 801 800 800 800 800 800 800 800 800 800 801 800 800 800 800 799 798 799 801 804 805 807 807 807 807 803 799 800 798 796 797 798 799 797 793 797 792 782 785 786 780 779 777 776 778 778 778 777 775 775 776 776 777 777
845 843 840 838 835 832 830 827 823 820 816 813 810 807 804 802 800 800 799 799 799 798 797 796 796 797 795 794 797 800 800 801 801 801 801 801 801 801 801 801 800 800 801 801 801 801 801 801 800 800 801 800 800 803 804 807 807 804 805 804 798 793 792 795 798 799 798 795 793 796 789 775 778 780 777 778 777 777 778 776 775 774 773 772 772 772 772 773
846 843 840 838 835 832 829 826 822 819 815 812 809 806 803 801 800 799 799 798 797 797 797 795 795 796 795 796 800 800 800 801 801 802 802 801 802 802 802 801 801 801 802 802 802 802 802 802 801 801 803 802 803 804 804 805 805 802 800 801 797 788 787 794 798 797 795 795 794 796 789 776 776 778 778 780 779 780 779 775 774 773 772 771 770 770 769 769
846 843 841 838 835 833 829 826 822 817 814 810 807 804 802 800 798 798 798 797 797 797 796 795 796 795 795 798 801 799 800 801 801 802 801 802 802 802 803 803 802 802 803 803 803 803 803 803 802 802 805 806 804 802 800 801 802 802 794 789 791 790 787 791 795 794 793 794 796 796 788 777 777 778 780 782 780 780 779 774 774 773 773 771 770 769 768 767
846 843 841 838 836 833 830 826 822 817 813 809 806 803 800 798 798 798 797 797 797 796 795 795 795 794 793 797 800 800 801 801 801 801 801 802 802 803 804 804 804 804 804 804 804 804 803 803 805 807 806 804 801 798 795 793 795 799 794 785 787 790 786 787 793 797 796 796 795 793 786 777 778 780 780 782 780 780 778 774 774 774 774 773 771 770 769 768
846 844 841 839 836 833 830 826 822 817 812 809 804 801 799 798 797 797 797 797 795 795 795 794 795 795 795 799 800 800 802 802 802 802 802 802 803 804 805 805 806 806 805 805 805 805 804 806 808 806 804 803 801 797 792 787 783 789 794 791 790 792 790 787 790 796 798 796 794 793 787 779 777 778 778 780 780 780 778 775 774 774 774 773 772 770 769 767
847 845 842 839 836 833 830 826 822 817 812 809 804 800 799 797 797 797 797 797 795 795 793 794 795 790 791 801 802 801 803 802 802 803 802 803 803 804 805 806 807 806 806 806 805 806 805 807 807 802 802 804 801 796 790 785 781 785 790 789 788 791 792 790 789 793 797 795 793 791 787 780 776 775 775 776 778 778 776 775 773 772 772 772 771 770 768 767
847 845 842 840 837 834 831 827 823 818 812 808 804 800 798 797 796 796 797 797 796 794 791 795 798 790 792 803 804 803 804 803 803 803 803 804 804 804 805 805 806 806 805 803 803 807 806 805 804 798 794 796 796 792 787 784 787 790 790 789 789 789 788 791 794 795 798 797 792 789 783 777 775 773 772 773 775 774 772 773 773 771 770 769 769 767 766 766
847 845 843 840 838 835 832 829 824 820 814 808 804 800 801 805 799 795 799 800 802 802 799 802 805 801 801 805 804 804 804 803 803 803 803 804 803 804 805 806 807 806 806 803 804 809 808 802 797 790 785 787 791 790 788 793 798 798 798 797 797 794 789 792 798 798 801 800 787 782 781 775 775 773 769 771 773 772 771 771 770 768 768 766 765 764 763 763
846 845 843 840 839 836 833 830 826 822 818 813 808 806 816 822 813 809 811 806 805 807 805 806 808 806 805 805 805 805 804 803 803 803 804 804 804 804 804 807 806 803 808 811 808 811 811 799 790 787 787 791 795 794 796 801 805 805 803 802 799 798 794 793 797 796 801 803 786 780 783 775 774 774 770 770 772 771 769 768 767 764 763 762 762 762 760 759
846 844 842 840 838 836 834 831 827 824 822 818 815 817 826 829 825 826 825 814 807 807 807 807 806 806 805 805 805 806 805 803 802 804 804 804 805 804 804 807 805 805 814 815 806 806 805 794 788 793 796 800 803 803 804 806 808 807 805 804 799 796 793 792 798 800 802 804 790 786 790 778 772 773 769 769 769 767 766 763 762 761 760 759 759 759 758 758
846 844 842 840 838 836 833 830 828 826 824 822 823 825 829 829 828 829 828 822 812 806 807 806 805 805 804 804 805 806 805 802 801 803 805 805 805 805 805 805 806 810 815 810 801 797 791 787 796 804 803 803 806 809 810 809 809 807 804 801 793 790 791 788 798 810 807 802 794 792 794 779 770 771 766 764 763 761 762 760 758 758 757 756 756 757 757 756
846 844 842 839 837 835 832 829 828 827 827 827 827 829 829 829 829 828 827 823 814 809 807 806 807 805 803 805 805 805 804 803 803 804 805 804 805 807 805 805 807 805 805 806 806 799 789 792 806 808 803 802 804 808 810 805 801 802 803 798 788 788 795 792 798 807 802 798 796 797 794 770 757 765 760 755 758 757 758 759 757 756 755 755 756 756 757 756
846 844 841 839 837 834 831 828 828 828 829 829 828 830 829 828 828 827 827 818 807 806 805 804 806 805 805 805 804 805 805 804 805 805 806 806 805 806 806 808 805 797 800 808 811 804 796 800 807 804 804 804 802 801 803 799 793 792 793 793 790 789 797 802 803 806 802 793 789 793 790 760 743 757 758 752 757 755 755 758 754 753 753 754 754 753 754 754
847 844 841 839 836 833 830 828 830 829 828 829 829 829 828 828 827 827 828 814 796 794 801 802 803 803 805 804 806 806 800 801 807 806 806 807 806 805 805 807 805 801 806 810 807 803 799 803 806 802 802 804 802 798 798 800 794 785 784 789 794 794 799 806 805 806 802 789 786 793 790 765 744 747 751 752 755 750 749 752 749 750 752 750 750 748 748 749
846 844 842 839 837 834 831 831 831 829 829 830 828 828 828 827 827 828 821 799 785 789 798 802 803 804 805 805 807 802 793 797 806 807 807 807 806 806 803 803 805 807 812 810 800 797 802 807 808 805 803 801 799 796 795 799 793 785 790 794 794 795 800 804 805 804 796 788 792 795 791 783 760 741 742 748 751 749 748 747 743 746 749 746 745 745 743 744
847 844 842 840 838 836 835 834 831 830 831 829 827 828 827 825 828 827 811 789 786 791 794 801 805 804 804 806 806 802 799 800 801 803 809 808 806 807 804 804 805 805 811 809 794 794 803 803 802 803 801 797 792 789 793 797 791 789 799 800 795 797 798 800 804 803 796 796 800 791 789 794 768 741 744 748 747 751 749 744 741 740 741 742 742 742 741 740
846 844 842 840 837 836 835 833 831 831 830 828 828 826 825 828 827 819 805 792 791 792 794 801 803 805 806 804 803 805 805 803 801 805 810 809 807 808 808 808 808 808 811 808 796 798 804 800 801 802 797 791 788 790 795 795 791 795 803 802 801 803 803 803 804 801 802 808 805 788 784 790 764 735 742 747 745 747 743 738 737 734 734 738 737 737 737 737
845 843 841 839 836 834 832 831 831 830 829 828 827 825 826 827 819 809 805 796 790 794 799 801 804 809 808 801 801 805 805 805 808 810 810 810 809 810 811 812 813 812 812 812 806 801 802 803 806 804 797 791 791 795 797 794 794 799 802 801 802 803 806 812 807 801 809 811 800 783 776 782 767 737 730 736 736 735 734 732 731 731 732 733 732 732 734 734
844 843 841 838 836 834 831 831 830 829 829 827 826 827 825 821 813 807 805 796 790 797 802 805 813 815 812 810 805 804 806 808 811 812 809 810 811 811 812 811 811 813 812 809 805 800 804 807 802 799 797 795 796 797 798 797 798 801 802 800 801 800 801 811 810 808 815 802 781 773 772 779 774 745 726 726 728 727 728 729 728 728 728 727 728 730 732 733
844 842 840 838 835 833 832 831 830 829 829 826 826 827 819 815 810 803 797 789 788 798 804 811 819 818 819 823 815 811 812 809 810 812 808 808 809 808 808 804 804 808 802 794 795 796 797 796 794 795 795 795 797 795 797 803 802 801 802 803 806 803 799 804 802 800 801 783 764 764 771 778 771 749 733 728 729 727 726 727 726 725 724 724 726 727 728 731
842 840 838 836 833 832 832 831 830 829 827 826 827 823 817 815 809 800 795 789 792 807 813 816 821 823 825 819 812 818 819 811 812 812 810 812 811 807 806 804 807 808 798 793 798 798 790 784 787 794 793 791 793 791 792 797 799 799 798 799 803 803 805 806 792 783 779 766 758 761 770 774 760 743 735 727 725 727 724 723 723 723 724 724 724 726 729 732
841 839 836 834 833 832 832 830 830 828 827 828 824 820 818 815 806 801 801 800 808 819 819 820 823 823 822 814 813 819 813 810 816 814 810 811 810 808 806 807 811 809 805 805 802 800 797 787 785 790 789 786 787 785 781 782 787 790 786 789 792 789 793 792 777 772 768 757 759 768 773 766 743 727 724 720 722 727 724 720 720 722 724 724 724 727 730 731
840 838 835 834 833 832 831 830 829 828 827 826 822 822 820 809 802 806 809 812 820 822 818 820 820 814 813 816 822 821 809 810 818 815 811 810 809 809 806 806 810 809 812 810 800 802 805 793 788 792 788 786 787 782 778 782 785 781 780 787 786 775 774 772 763 763 767 766 767 766 759 742 725 719 720 722 726 729 727 722 720 723 723 723 725 725 726 727
838 836 834 834 833 832 832 830 829 829 827 825 823 823 818 808 809 817 818 818 823 823 818 815 812 810 809 814 822 822 814 814 819 817 815 815 815 813 813 814 816 817 818 814 807 810 808 794 792 799 792 786 788 783 782 787 784 778 783 786 778 770 773 776 771 765 773 781 769 753 745 734 727 726 720 719 722 722 726 726 721 722 722 724 725 722 721 722
837 835 834 834 834 832 832 830 829 829 827 826 824 821 819 818 820 824 824 825 827 826 823 816 814 816 813 812 819 823 820 816 819 821 817 816 815 813 818 821 821 823 822 822 819 814 812 805 797 800 797 788 788 790 786 785 785 785 787 783 778 779 781 785 785 775 775 779 761 744 742 738 735 730 716 713 716 714 720 724 722 723 723 724 725 723 721 722
837 836 835 835 834 833 832 830 830 829 827 828 826 822 826 827 825 826 828 829 829 827 827 823 820 821 819 819 822 825 825 818 818 823 819 817 815 812 817 822 825 827 823 825 825 816 820 819 800 795 797 789 789 795 790 781 782 784 784 783 786 790 788 786 787 783 778 774 760 746 741 736 734 727 716 715 715 711 714 718 720 722 720 719 720 721 723 724
838 835 834 834 834 833 832 831 830 829 829 831 828 825 832 833 829 830 830 828 828 828 827 824 821 823 824 826 826 828 831 824 822 827 823 819 817 814 817 821 825 828 823 826 829 822 825 826 809 800 800 795 795 798 796 789 784 782 783 786 787 789 788 781 776 776 774 769 759 749 742 733 725 720 717 716 713 710 712 715 718 719 716 715 717 719 723 725
839 837 834 834 834 833 833 832 831 832 831 832 832 832 837 837 831 832 831 829 830 829 828 827 826 827 827 828 828 829 833 830 827 830 826 820 818 817 825 829 827 829 827 827 828 827 829 827 815 805 802 802 799 796 799 802 799 795 793 794 791 788 788 784 778 776 776 774 764 755 746 728 717 721 721 717 716 719 724 727 727 727 724 722 723 725 726 726
841 840 835 834 834 833 833 833 833 836 836 836 838 839 838 835 833 833 830 831 833 829 830 832 831 831 831 829 829 831 836 835 830 829 826 823 821 822 831 838 835 833 832 829 827 828 830 827 819 811 807 804 798 796 802 804 804 804 803 802 799 795 795 794 786 774 772 774 766 760 754 733 726 736 733 728 732 734 737 739 737 736 735 732 730 730 729 728
842 841 836 834 835 833 832 834 836 839 840 838 839 840 837 834 835 835 832 833 834 832 834 836 836 837 835 834 836 837 839 838 833 830 828 826 826 829 836 840 839 837 838 837 832 829 833 834 829 820 811 806 801 800 802 801 801 804 805 801 799 799 800 802 796 780 776 777 765 761 760 742 736 745 741 739 742 739 739 742 741 741 738 735 734 733 731 730
843 841 836 834 835 834 833 834 837 840 841 840 840 838 837 836 837 836 834 835 836 836 838 838 838 839 837 839 842 840 840 841 835 831 832 832 832 836 839 839 840 839 840 843 839 834 837 839 837 828 815 807 804 800 800 803 805 805 802 799 802 804 802 807 807 798 796 791 775 770 767 746 739 745 743 741 741 738 738 740 741 743 740 737 737 735 734 733
843 841 838 836 835 834 834 833 836 840 841 841 841 839 837 837 836 836 836 837 838 840 842 841 838 838 838 840 842 841 842 845 840 836 839 838 834 836 838 839 840 840 841 845 842 840 841 837 839 840 827 813 808 804 802 806 807 807 805 804 809 809 808 810 808 804 805 795 780 781 774 750 739 741 739 740 740 738 740 741 742 744 742 742 741 738 738 737
843 840 838 838 836 836 836 835 837 840 840 842 844 842 840 838 838 839 839 839 839 840 843 841 838 838 838 838 841 840 840 843 843 840 840 837 834 834 837 838 839 839 841 840 836 839 844 838 837 842 833 820 816 813 809 810 812 814 812 811 812 810 811 812 808 805 802 786 774 777 773 756 748 744 740 741 741 741 742 743 745 746 746 747 745 743 742 740
843 841 839 838 837 839 840 838 840 842 842 845 847 846 845 842 840 840 841 841 839 838 839 838 838 840 840 840 842 842 840 839 840 841 840 837 835 835 836 838 839 839 838 837 834 839 845 840 836 839 836 828 824 819 815 817 821 821 817 813 810 808 809 809 809 807 799 789 784 778 771 768 763 754 749 747 746 747 747 747 749 749 749 749 748 747 745 743
844 844 842 840 839 840 840 840 842 843 844 846 847 845 845 845 844 843 842 839 837 838 838 837 838 839 839 840 843 843 842 841 841 842 841 838 837 837 838 840 840 838 836 835 835 839 844 842 836 838 838 832 828 825 823 824 827 827 822 816 809 806 805 807 809 805 797 800 798 782 776 782 774 759 754 753 752 754 756 758 758 756 754 752 750 749 747 745
844 843 842 842 841 839 840 841 842 844 844 845 844 842 842 843 845 844 841 838 838 840 842 840 839 839 837 837 841 842 842 843 844 843 842 842 840 840 841 841 839 837 837 837 838 839 842 840 835 836 837 832 828 828 826 827 828 825 822 818 812 806 804 806 808 803 798 804 800 786 784 788 776 763 763 764 764 766 767 769 767 762 760 757 754 753 752 749
843 842 841 842 841 839 839 840 840 841 842 841 839 838 840 841 840 838 836 839 841 839 840 841 838 836 836 837 841 844 842 842 844 842 842 843 841 841 843 841 837 835 836 839 838 837 839 837 832 834 835 831 829 827 826 827 827 824 821 817 812 807 804 804 804 800 798 799 794 789 790 785 774 772 777 779 777 776 776 776 773 770 769 767 764 763 761 759
843 842 840 841 840 838 838 838 839 839 837 838 836 833 834 835 833 831 832 838 840 836 836 839 835 833 835 836 839 843 840 839 841 840 840 842 841 841 842 840 837 835 837 838 836 835 838 834 828 832 834 829 827 826 824 823 822 822 818 812 809 809 805 803 802 799 797 794 790 789 786 778 774 779 786 788 785 784 786 784 782 781 780 778 777 775 772 771
841 840 840 840 838 835 836 835 836 837 834 833 833 830 830 831 831 832 833 831 832 832 832 833 833 834 838 838 839 840 837 836 837 836 836 839 839 839 839 840 839 838 839 839 836 836 838 833 832 837 834 827 827 826 823 823 823 822 818 812 810 809 806 804 800 795 794 792 788 784 781 780 782 785 788 792 793 793 796 795 793 792 789 788 788 786 784 781
839 838 838 839 835 831 832 832 832 834 831 829 829 829 830 831 830 833 836 830 827 831 832 832 834 836 838 839 838 835 834 834 836 835 836 838 839 838 839 839 838 839 839 838 837 837 837 837 839 839 831 826 828 827 827 827 822 816 814 810 806 805 804 800 794 790 794 796 790 785 788 796 799 794 793 800 803 803 805 805 804 802 798 796 796 795 792 789